TimeAWST,TemperatureF,Dew PointF,Humidity,Sea Level PressureIn,VisibilityMPH,Wind Direction,Wind SpeedMPH,Gust SpeedMPH,PrecipitationIn,Events,Conditions,WindDirDegrees,DateUTC
12:00 AM,64,54,63,29.88,,South,3.5,,,,,190,2013-05-01 16:00:00
12:00 AM,64.4,53.6,68,29.89,-9999.0,South,3.5,-,N/A,,Unknown,190,2013-05-01 16:00:00
1:00 AM,66.2,60.8,83,29.86,-9999.0,South,4.6,-,N/A,,Unknown,190,2013-05-01 17:00:00
2:00 AM,64.4,59.0,83,29.86,-9999.0,South,4.6,-,N/A,,Unknown,190,2013-05-01 18:00:00
3:00 AM,62,56,76,29.84,,South,3.5,,,,,170,2013-05-01 19:00:00
3:00 AM,60.8,57.2,88,29.83,-9999.0,South,3.5,-,N/A,,Unknown,170,2013-05-01 19:00:00
4:00 AM,60.8,57.2,88,29.83,-9999.0,SSE,4.6,-,N/A,,Unknown,150,2013-05-01 20:00:00
5:00 AM,60.8,51.8,72,29.83,-9999.0,SSE,5.8,-,N/A,,Unknown,150,2013-05-01 21:00:00
6:00 AM,63,48,47,29.86,,SSE,5.8,,,,,150,2013-05-01 22:00:00
6:00 AM,62.6,48.2,59,29.86,-9999.0,SSE,5.8,-,N/A,,Unknown,150,2013-05-01 22:00:00
7:00 AM,64.4,50.0,59,29.89,-9999.0,Calm,Calm,-,N/A,,Unknown,0,2013-05-01 23:00:00
8:00 AM,80.6,51.8,37,29.89,-9999.0,East,5.8,-,N/A,,Unknown,80,2013-05-02 00:00:00
9:00 AM,90,49,15,29.90,,ENE,5.8,,,,,70,2013-05-02 01:00:00
9:00 AM,89.6,50.0,26,29.89,-9999.0,ENE,5.8,-,N/A,,Unknown,70,2013-05-02 01:00:00
11:00 AM,98.6,48.2,18,29.86,-9999.0,ENE,9.2,-,N/A,,Unknown,70,2013-05-02 03:00:00
12:00 PM,98,49,11,29.83,,NE,9.2,,,,,50,2013-05-02 04:00:00
12:00 PM,98.6,50.0,19,29.83,-9999.0,NE,9.2,-,N/A,,Unknown,50,2013-05-02 04:00:00
1:00 PM,98.6,50.0,19,29.80,-9999.0,ENE,9.2,-,N/A,,Unknown,60,2013-05-02 05:00:00
2:00 PM,100.4,48.2,17,29.80,-9999.0,NE,6.9,-,N/A,,Unknown,40,2013-05-02 06:00:00
3:00 PM,98,50,12,29.79,,NE,3.5,,,,,40,2013-05-02 07:00:00
3:00 PM,98.6,50.0,19,29.80,-9999.0,NE,3.5,-,N/A,,Unknown,40,2013-05-02 07:00:00
4:00 PM,95.0,48.2,20,29.80,-9999.0,NNE,4.6,-,N/A,,Unknown,30,2013-05-02 08:00:00
5:00 PM,87.8,55.4,33,29.80,-9999.0,WNW,3.5,-,N/A,,Unknown,300,2013-05-02 09:00:00
6:00 PM,78,56,35,29.84,,WNW,2.3,,,,,290,2013-05-02 10:00:00
6:00 PM,78.8,55.4,44,29.83,-9999.0,WNW,2.3,-,N/A,,Unknown,290,2013-05-02 10:00:00
7:00 PM,73.4,57.2,57,29.86,-9999.0,Calm,Calm,-,N/A,,Unknown,0,2013-05-02 11:00:00
8:00 PM,71.6,55.4,57,29.89,-9999.0,WSW,1.2,-,N/A,,Unknown,240,2013-05-02 12:00:00
9:00 PM,69,56,53,29.88,,Calm,Calm,,,,,,2013-05-02 13:00:00
9:00 PM,69.8,55.4,60,29.89,-9999.0,Calm,Calm,-,N/A,,Unknown,0,2013-05-02 13:00:00
10:00 PM,68.0,57.2,68,29.89,-9999.0,WSW,4.6,-,N/A,,Unknown,250,2013-05-02 14:00:00
11:00 PM,68.0,57.2,68,29.89,-9999.0,South,4.6,-,N/A,,Unknown,180,2013-05-02 15:00:00